Weather History for PACD - September, 2012

Change the Weather History Date:

Saturday, September 29, 2012

  Actual Average Record
Temperature  
Mean Temperature 40 °F 45 °F  
Max Temperature 45 °F 50 °F 60 °F (1954)
Min Temperature 35 °F 40 °F 30 °F (1951)
Degree Days  
Heating Degree Days 25 20  
Month to date heating degree days 566 487  
Since 1 July heating degree days 1494 1331  
Cooling Degree Days 0    
Month to date cooling degree days 0  
Year to date cooling degree days 0  
Moisture  
Dew Point 30 °F    
Average Humidity 70    
Maximum Humidity 82    
Minimum Humidity 45    
Precipitation  
Precipitation T in 0.16 in 1.50 in (2004)
Month to date precipitation 3.65 4.56  
Year to date precipitation 31.14 27.30  
Snow  
Snow 0.00 in 0.00 in T in (1981)
Month to date snowfall T 0.0  
Since 1 July snowfall T 0.0  
Since 1 September snowfall 0.0 0.0  
Snow Depth 0.00 in    
Sea Level Pressure  
Sea Level Pressure 29.89 in    
Wind  
Wind Speed 0 mph (NW)    
Max Wind Speed 23 mph    
Max Gust Speed 29 mph    
Visibility 10 miles    
Events Rain    
T = Trace of Precipitation, MM = Missing Value Source: NWS Daily Summary

Daily Weather History Graph

Daily Weather History Graph

Search for Another Location

Airport or City:

Trip Planner

Search our weather history database for the weather conditions in past years. The results will help you decide how hot, cold, wet, or windy it might be!

Date:

Astronomy

Sep. 29, 2012 Rise Set
Actual Time 8:51 AM AKDT 8:29 PM AKDT
Civil Twilight 8:14 AM AKDT 9:05 PM AKDT
Nautical Twilight 7:32 AM AKDT 9:48 PM AKDT
Astronomical Twilight 6:47 AM AKDT 10:32 PM AKDT
Moon 7:58 PM AKDT (9/29) 8:40 AM AKDT (9/29)
Length of Visible Light 12h 51m
Length of Day
11h 38m
Full, 100% of the Moon is Illuminated
Sep 29
Full
Sep 29
Full
Oct 7
Last Quarter
Oct 15
New
Oct 21
First Quarter

Hourly Weather History & Observations

Time (AKDT) Temp. Windchill Dew Point Humidity Pressure Visibility Wind Dir Wind Speed Gust Speed Precip Events Conditions
12:53 AM 39.9 °F 31.8 °F 33.1 °F 77% 29.73 in 10.0 mi WNW 15.0 mph - N/A   Overcast
1:53 AM 39.0 °F 29.9 °F 32.0 °F 76% 29.74 in 10.0 mi NNW 17.3 mph - 0.00 in   Overcast
2:53 AM 37.9 °F 30.0 °F 28.9 °F 70% 29.75 in 10.0 mi NNW 12.7 mph - N/A   Overcast
3:53 AM 37.9 °F 29.6 °F 30.0 °F 73% 29.76 in 10.0 mi NNW 13.8 mph - 0.00 in   Overcast
4:53 AM 37.0 °F 28.5 °F 28.0 °F 70% 29.77 in 10.0 mi NNW 13.8 mph - N/A   Overcast
5:53 AM 36.0 °F 28.5 °F 28.9 °F 76% 29.78 in 10.0 mi NW 10.4 mph - 0.00 in   Mostly Cloudy
6:53 AM 35.1 °F 26.9 °F 28.9 °F 78% 29.80 in 10.0 mi NW 11.5 mph - N/A   Scattered Clouds
7:53 AM 36.0 °F 28.0 °F 28.0 °F 73% 29.82 in 10.0 mi NW 11.5 mph - N/A   Mostly Cloudy
8:53 AM 36.0 °F 27.1 °F 30.0 °F 79% 29.84 in 9.0 mi NW 13.8 mph 28.8 mph 0.00 in Rain Light Rain
9:53 AM 37.9 °F 30.0 °F 30.0 °F 73% 29.86 in 10.0 mi NW 12.7 mph - 0.00 in   Scattered Clouds
10:53 AM 39.9 °F 31.8 °F 33.1 °F 77% 29.89 in 10.0 mi WNW 15.0 mph - N/A   Mostly Cloudy
11:53 AM 42.1 °F 34.5 °F 32.0 °F 67% 29.91 in 10.0 mi NNW 15.0 mph - N/A   Clear
12:53 PM 42.1 °F 33.9 °F 28.0 °F 58% 29.92 in 10.0 mi NW 17.3 mph - N/A   Mostly Cloudy
1:53 PM 42.1 °F 35.2 °F 28.0 °F 58% 29.94 in 10.0 mi NNW 12.7 mph - N/A   Overcast
2:53 PM 43.0 °F 36.0 °F 28.9 °F 58% 29.95 in 10.0 mi NW 13.8 mph - N/A   Mostly Cloudy
3:53 PM 43.0 °F 36.4 °F 28.9 °F 58% 29.95 in 10.0 mi NW 12.7 mph - N/A   Overcast
4:53 PM 43.0 °F 37.2 °F 32.0 °F 65% 29.96 in 10.0 mi NNW 10.4 mph - N/A   Overcast
5:53 PM 42.1 °F 35.7 °F 33.1 °F 70% 29.97 in 10.0 mi NW 11.5 mph - 0.00 in   Overcast
6:53 PM 41.0 °F 36.4 °F 32.0 °F 70% 29.99 in 10.0 mi NW 6.9 mph - N/A   Mostly Cloudy
7:53 PM 39.9 °F 37.8 °F 32.0 °F 73% 29.99 in 10.0 mi WSW 3.5 mph - N/A   Overcast
8:53 PM 37.9 °F 34.4 °F 30.9 °F 76% 30.00 in 10.0 mi SW 4.6 mph - N/A   Overcast
9:53 PM 37.0 °F 32.4 °F 30.9 °F 79% 30.01 in 10.0 mi SW 5.8 mph - N/A   Overcast
10:53 PM 37.0 °F 33.3 °F 30.9 °F 79% 30.03 in 10.0 mi West 4.6 mph - N/A   Overcast
11:53 PM 36.0 °F - 30.9 °F 82% 30.04 in 10.0 mi Calm Calm - 0.00 in   Overcast